Flag for Canada Weather past 2 weeks in Windsor, Ontario, Canada

Now
23 °F

Light snow. Mostly cloudy.


Feels Like: 8 °F
Forecast: 9 / 27 °F
Wind: 21 mph from Northwest

Location: Windsor Weather Station

Current Time: Jan 30, 2015 at 4:04:11 AM

Latest Report: Jan 30, 2015 at 3:00 AM


Visibility: 12 mi

Pressure: 30.16 "Hg

Humidity: 74%

Dew point: 16 °F

Location of WindsorLocation

Historic Weather in Windsor — Graph

°F

Windsor temperature yesterday

Maximum temperature yesterday: 34 °F (at 11:00 AM)
Minimum temperature yesterday: 23 °F (at 12:00 AM)
Average temperature yesterday: 30 °F

Past Weeks' High & Low Weather Summary

 TemperatureHumidityPressure
High41 °F (Jan 18, 1:00 AM)93% (Jan 18, 5:00 AM)30.46 "Hg (Jan 18, 5:00 AM)
Low3 °F (Jan 15, 3:00 AM)51% (Jan 16, 11:00 AM)29.57 "Hg (Jan 24, 2:00 PM)
Average25 °F79%30.02 "Hg
* Reported Jan 15 3:00 AM — Jan 30 3:00 AM, Windsor, Weather by CustomWeather, © 2014

Note: Actual official high and low records may vary slightly from our data, if they occured in-between our weather recording intervals... More about our weather records

Advertising

Windsor weather history for previous 24 hours

 ConditionsComfort  
Time TempWeatherWind HumidityBarometerVisibility
3:00 AM
Jan 30
23 °FLight snow. Mostly cloudy.21 mph74%30.16 "Hg12 mi
2:00 AM25 °FLight snow. Mostly cloudy.21 mph69%30.13 "Hg12 mi
1:00 AM27 °FLight snow. Mostly cloudy.21 mph69%30.10 "Hg10 mi
12:00 AM28 °FLight snow. Overcast.25 mph69%30.07 "Hg12 mi
11:00 PM
Jan 29
30 °FLight snow. Mostly cloudy.21 mph69%30.04 "Hg12 mi
10:00 PM32 °FLight snow. Overcast.20 mph75%30.02 "Hg10 mi
9:00 PM32 °FPassing clouds.15 mph80%29.99 "Hg6 mi
8:00 PM32 °FLight snow. Overcast.14 mph80%29.96 "Hg6 mi
7:00 PM32 °FLight snow. Overcast.16 mph80%29.93 "Hg6 mi
6:00 PM32 °FLight snow. Low clouds.14 mph87%29.89 "Hg1 mi
5:00 PM32 °FLight snow. Low clouds.15 mph87%29.83 "Hg1 mi
4:00 PM32 °FLight snow. Overcast.10 mph93%29.79 "Hg2 mi
3:00 PM34 °FLight snow. Overcast.12 mph81%29.74 "Hg2 mi
2:00 PM34 °FSleet. Overcast.7 mph81%29.73 "Hg12 mi
1:00 PM34 °FOvercast.7 mph81%29.73 "Hg15 mi
12:00 PM34 °FOvercast.10 mph81%29.75 "Hg15 mi
11:00 AM34 °FOvercast.12 mph75%29.77 "Hg15 mi
10:00 AM30 °FOvercast.8 mph80%29.80 "Hg15 mi
9:00 AM30 °FOvercast.6 mph75%29.82 "Hg15 mi
8:00 AM28 °FOvercast.12 mph74%29.84 "Hg15 mi
7:52 AM28 °FOvercast.12 mph74%29.85 "Hg12 mi
7:00 AM28 °FOvercast.12 mph69%29.88 "Hg15 mi
6:00 AM28 °FLight mixture of precip. Overcast.10 mph64%29.93 "Hg10 mi
5:52 AM28 °FLight mixture of precip. Overcast.14 mph64%29.92 "Hg10 mi
5:00 AM27 °FOvercast.13 mph74%29.96 "Hg15 mi
4:00 AM27 °FMostly cloudy.15 mph69%30.02 "Hg15 mi
Weather by CustomWeather, © 2014

See weather overviewHow to use our weather pages